Weather History for Biloxi, MS

Change the Weather History Date:

Monday, August 6, 2012

  Actual Average Record
Temperature  
Mean Temperature 83 °F -  
Max Temperature 92 °F 89 °F 96 °F (1953)
Min Temperature 74 °F 74 °F 67 °F (1957)
Cooling Degree Days 18    
Growing Degree Days 33 (Base 50)    
Moisture  
Dew Point 68 °F    
Average Humidity 69    
Maximum Humidity 79    
Minimum Humidity 37    
Precipitation  
Precipitation 1.22 in - - ()
Sea Level Pressure  
Sea Level Pressure 30.01 in    
Wind  
Wind Speed 5 mph (North)    
Max Wind Speed 21 mph    
Max Gust Speed 25 mph    
Visibility 7 miles    
Events Rain , Thunderstorm    
Averages and records for this station are not official NWS values.
T = Trace of Precipitation, MM = Missing Value Source: NWS Daily Summary

Daily Weather History Graph

Daily Weather History Graph

Search for Another Location

Airport:

Trip Planner

Search our weather history database for the weather conditions in past years. The results will help you decide how hot, cold, wet, or windy it might be!

Date:

Astronomy

Aug. 06, 2012 Rise Set
Actual Time 6:17 AM CDT 7:45 PM CDT
Civil Twilight 5:51 AM CDT 8:10 PM CDT
Nautical Twilight 5:20 AM CDT 8:41 PM CDT
Astronomical Twilight 4:48 AM CDT 9:13 PM CDT
Moon 10:21 PM CDT (8/6) 10:40 AM CDT (8/6)
Length of Visible Light 14h 19m
Length of Day
13h 27m
Waning Gibbous, 78% of the Moon is Illuminated
Aug 6
Waning Gibbous
Aug 9
Last Quarter
Aug 17
New
Aug 24
First Quarter
Aug 31
Full

Hourly Weather History & Observations

Time (CDT) Temp. Heat Index Dew Point Humidity Pressure Visibility Wind Dir Wind Speed Gust Speed Precip Events Conditions
12:55 AM 80.1 °F 82.8 °F 68.7 °F 68% 30.05 in 10.0 mi Calm Calm - N/A   Partly Cloudy
1:55 AM 79.9 °F - 68.4 °F 68% 30.04 in 10.0 mi Calm Calm - N/A   Partly Cloudy
2:55 AM 79.9 °F - 68.5 °F 68% 30.03 in 10.0 mi Calm Calm - N/A   Clear
3:55 AM 79.2 °F - 68.9 °F 71% 30.02 in 10.0 mi Calm Calm - N/A   Clear
4:55 AM 79.0 °F - 68.4 °F 70% 30.02 in 9.0 mi NNW 3.5 mph - N/A   Clear
5:55 AM 78.1 °F - 68.5 °F 72% 30.04 in 10.0 mi Variable 3.5 mph - N/A   Clear
6:55 AM 78.8 °F - 67.8 °F 69% 30.06 in 10.0 mi Calm Calm - N/A   Partly Cloudy
7:55 AM 81.1 °F 83.5 °F 66.9 °F 62% 30.06 in 10.0 mi North 4.6 mph - N/A   Clear
8:55 AM 84.4 °F 86.8 °F 66.6 °F 55% 30.06 in 10.0 mi North 4.6 mph - N/A   Clear
9:55 AM 88.2 °F 91.3 °F 67.1 °F 50% 30.07 in 10.0 mi North 8.1 mph - N/A   Clear
10:55 AM 89.4 °F 92.7 °F 67.1 °F 48% 30.06 in 10.0 mi North 6.9 mph - N/A Thunderstorm Clear
11:55 AM 90.0 °F 92.4 °F 66.2 °F 45% 30.06 in 10.0 mi Calm Calm - N/A   Partly Cloudy
12:55 PM 92.3 °F 93.1 °F 62.6 °F 37% 30.04 in 10.0 mi SW 4.6 mph - N/A   Partly Cloudy
1:55 PM 89.4 °F 93.5 °F 68.4 °F 50% 30.00 in 10.0 mi SW 11.5 mph - N/A   Scattered Clouds
2:20 PM 89.6 °F 93.4 °F 68.0 °F 49% 29.99 in 10.0 mi SW 10.4 mph - N/A Thunderstorm Thunderstorm
2:55 PM 87.1 °F 90.9 °F 68.4 °F 54% 29.99 in 10.0 mi SSW 11.5 mph - N/A Thunderstorm Thunderstorm
3:05 PM 86.0 °F 90.4 °F 69.8 °F 58% 30.01 in 10.0 mi East 12.7 mph 16.1 mph N/A Rain , Thunderstorm Light Thunderstorms and Rain
3:13 PM 82.4 °F 87.2 °F 71.6 °F 70% 30.00 in 2.5 mi East 20.7 mph 24.2 mph N/A Rain , Thunderstorm Heavy Thunderstorms and Rain
3:15 PM 80.6 °F 83.9 °F 69.8 °F 70% 30.01 in 2.0 mi East 20.7 mph - N/A Rain , Thunderstorm Heavy Thunderstorms and Rain
3:16 PM 80.6 °F 83.9 °F 69.8 °F 70% 30.01 in 1.5 mi East 19.6 mph 25.3 mph N/A Rain , Thunderstorm Heavy Thunderstorms and Rain
3:17 PM 78.8 °F - 69.8 °F 74% 30.01 in 1.2 mi East 19.6 mph 25.3 mph N/A Rain , Thunderstorm Heavy Thunderstorms and Rain
3:21 PM 77.0 °F - 68.0 °F 74% 30.02 in 0.8 mi ESE 18.4 mph - N/A Rain , Thunderstorm Heavy Thunderstorms and Rain
3:24 PM 77.0 °F - 68.0 °F 74% 30.03 in 0.5 mi ESE 11.5 mph 25.3 mph N/A Rain , Thunderstorm Heavy Thunderstorms and Rain
3:35 PM 75.2 °F - 68.0 °F 78% 30.05 in 0.2 mi NNW 4.6 mph - N/A Rain , Thunderstorm Heavy Thunderstorms and Rain
3:37 PM 75.2 °F - 68.0 °F 78% 30.06 in 0.2 mi NNW 5.8 mph - N/A Rain , Thunderstorm Heavy Thunderstorms and Rain
3:42 PM 75.2 °F - 68.0 °F 78% 30.04 in 0.5 mi Variable 6.9 mph - N/A Rain , Thunderstorm Heavy Thunderstorms and Rain
3:46 PM 75.2 °F - 66.2 °F 73% 30.01 in 0.8 mi SSW 8.1 mph - N/A Rain , Thunderstorm Heavy Thunderstorms and Rain
3:50 PM 77.0 °F - 64.4 °F 65% 30.02 in 1.0 mi Variable 3.5 mph - N/A Rain , Thunderstorm Thunderstorms and Rain
3:52 PM 77.0 °F - 64.4 °F 65% 30.02 in 1.8 mi Variable 3.5 mph - N/A Rain , Thunderstorm Light Thunderstorms and Rain
3:55 PM 76.6 °F - 64.6 °F 66% 30.03 in 3.0 mi Variable 5.8 mph - 0.89 in Rain , Thunderstorm Thunderstorms and Rain
4:02 PM 75.2 °F - 66.2 °F 73% 30.03 in 1.2 mi NW 3.5 mph - N/A Rain , Thunderstorm Heavy Thunderstorms and Rain
4:11 PM 75.2 °F - 66.2 °F 73% 30.01 in 1.5 mi Variable 5.8 mph - N/A Rain , Thunderstorm Thunderstorms and Rain
4:12 PM 75.2 °F - 68.0 °F 78% 30.01 in 1.8 mi NNW 5.8 mph - N/A Rain , Thunderstorm Light Thunderstorms and Rain
4:13 PM 75.2 °F - 68.0 °F 78% 30.01 in 2.0 mi Variable 4.6 mph - N/A Rain , Thunderstorm Light Thunderstorms and Rain
4:14 PM 75.2 °F - 68.0 °F 78% 30.01 in 2.5 mi Variable 4.6 mph - N/A Rain , Thunderstorm Light Thunderstorms and Rain
4:15 PM 75.2 °F - 68.0 °F 78% 30.01 in 3.0 mi Variable 5.8 mph - N/A Rain , Thunderstorm Light Thunderstorms and Rain
4:26 PM 75.2 °F - 66.2 °F 73% 30.00 in 10.0 mi Calm Calm - N/A Rain , Thunderstorm Light Rain
4:36 PM 75.2 °F - 68.0 °F 78% 29.99 in 10.0 mi Calm Calm - N/A Thunderstorm Scattered Clouds
4:42 PM 75.2 °F - 68.0 °F 78% 29.98 in 10.0 mi Calm Calm - N/A Rain , Thunderstorm Light Rain
4:55 PM 74.7 °F - 67.6 °F 79% 29.98 in 8.0 mi Calm Calm - 0.22 in Rain , Thunderstorm Light Rain
5:37 PM 75.2 °F - 68.0 °F 78% 29.99 in 10.0 mi NNW 3.5 mph - N/A Rain , Thunderstorm Light Thunderstorms and Rain
5:44 PM 75.2 °F - 68.0 °F 78% 29.98 in 10.0 mi Variable 2.3 mph - N/A Rain , Thunderstorm Light Thunderstorms and Rain
5:52 PM 75.2 °F - 68.0 °F 78% 29.99 in 8.0 mi Calm Calm - N/A Rain Light Rain
5:55 PM 75.7 °F - 68.2 °F 77% 29.99 in 8.0 mi Variable 3.5 mph - 0.05 in Rain Light Rain
6:55 PM 74.5 °F - 66.6 °F 76% 29.99 in 10.0 mi Calm Calm - 0.05 in Rain Light Rain
7:25 PM 75.2 °F - 66.2 °F 73% 29.96 in 10.0 mi Calm Calm - N/A   Clear
7:55 PM 75.4 °F - 66.7 °F 74% 29.96 in 10.0 mi Calm Calm - 0.01 in   Clear
8:55 PM 75.9 °F - 66.9 °F 74% 29.98 in 10.0 mi NNE 3.5 mph - N/A   Clear
9:55 PM 75.4 °F - 67.1 °F 75% 30.01 in 10.0 mi Calm Calm - N/A   Clear
10:55 PM 75.7 °F - 66.9 °F 74% 29.99 in 10.0 mi Calm Calm - N/A   Mostly Cloudy
11:55 PM 75.7 °F - 66.9 °F 74% 29.97 in 10.0 mi Calm Calm - N/A   Partly Cloudy